Burns, OR

11:53 AM PDT on September 23, 2017 (GMT -0700)
Burns Municipal

Weather History for KBNO - October, 2011

Change the Weather History Date:

Wednesday, October 19, 2011

  Actual Average Record
Temperature  
Mean Temperature 52 °F 44 °F  
Max Temperature 72 °F 60 °F 77 °F (1974)
Min Temperature 31 °F 27 °F 11 °F (1982)
Degree Days  
Heating Degree Days 13 21  
Month to date heating degree days 333 346  
Since 1 July heating degree days 552 765  
Cooling Degree Days 0 0  
Month to date cooling degree days 0 0  
Year to date cooling degree days 144 215  
Growing Degree Days 1 (Base 50)    
Moisture  
Dew Point 34 °F    
Average Humidity 58    
Maximum Humidity 89    
Minimum Humidity 26    
Precipitation  
Precipitation 0.00 in 0.02 in 0.23 in (2004)
Month to date precipitation 1.34 0.41  
Year to date precipitation 9.64 7.83  
Sea Level Pressure  
Sea Level Pressure 30.04 in    
Wind  
Wind Speed 6 mph (WSW)    
Max Wind Speed 18 mph    
Max Gust Speed 23 mph    
Visibility 8 miles    
Events      
T = Trace of Precipitation, MM = Missing Value Source: NWS Daily Summary

Daily Weather History Graph

Daily Weather History Graph

Search for Another Location

Airport or City:

Trip Planner

Search our weather history database for the weather conditions in past years. The results will help you decide how hot, cold, wet, or windy it might be!

Date:

Astronomy

Oct. 19, 2011 Rise Set
Actual Time 7:14 AM PDT 6:06 PM PDT
Civil Twilight 6:45 AM PDT 6:35 PM PDT
Nautical Twilight 6:12 AM PDT 7:08 PM PDT
Astronomical Twilight 5:39 AM PDT 7:41 PM PDT
Moon 11:53 PM PDT (10/19) 1:53 PM PDT (10/19)
Length of Visible Light 11h 49m
Length of Day
10h 51m
Waning Gibbous, 54% of the Moon is Illuminated
Oct 19
Waning Gibbous
Oct 19
Last Quarter
Oct 26
New
Nov 2
First Quarter
Nov 10
Full

Hourly Weather History & Observations

Time (PDT) Temp. Windchill Dew Point Humidity Pressure Visibility Wind Dir Wind Speed Gust Speed Precip Events Conditions
12:53 AM 32.0 °F 28.7 °F 28.0 °F 85% 30.08 in 10.0 mi West 3.5 mph - N/A   Clear
1:53 AM 33.1 °F 28.7 °F 30.0 °F 89% 30.06 in 10.0 mi WSW 4.6 mph - N/A   Clear
2:53 AM 33.1 °F 27.7 °F 30.0 °F 89% 30.03 in 10.0 mi WSW 5.8 mph - N/A   Clear
3:53 AM 34.0 °F - 30.9 °F 89% 30.03 in 10.0 mi Calm Calm - N/A   Clear
4:53 AM 35.1 °F 30.1 °F 32.0 °F 89% 30.03 in 10.0 mi West 5.8 mph - N/A   Clear
5:53 AM 37.9 °F 32.7 °F 33.1 °F 83% 30.04 in 10.0 mi West 6.9 mph - N/A   Clear
6:53 AM 36.0 °F 31.1 °F 32.0 °F 86% 30.06 in 10.0 mi WSW 5.8 mph - N/A   Clear
7:53 AM 36.0 °F 33.3 °F 32.0 °F 86% 30.07 in 10.0 mi WSW 3.5 mph - N/A   Mostly Cloudy
8:53 AM 42.1 °F - 36.0 °F 79% 30.08 in 10.0 mi Calm Calm - N/A   Partly Cloudy
9:53 AM 48.9 °F - 35.1 °F 59% 30.08 in 10.0 mi Calm Calm - N/A   Clear
10:53 AM 54.0 °F - 36.0 °F 51% 30.08 in 10.0 mi Variable 3.5 mph - N/A   Clear
11:53 AM 57.9 °F - 36.0 °F 44% 30.06 in 10.0 mi Variable 3.5 mph - N/A   Clear
12:53 PM 62.1 °F - 37.0 °F 39% 30.03 in 10.0 mi South 6.9 mph - N/A   Clear
1:53 PM 66.9 °F - 39.0 °F 36% 29.99 in 10.0 mi South 5.8 mph - N/A   Clear
2:53 PM 70.0 °F - 36.0 °F 29% 29.98 in 9.0 mi WSW 13.8 mph 20.7 mph N/A   Partly Cloudy
3:53 PM 69.1 °F - 33.1 °F 26% 29.99 in 10.0 mi SW 11.5 mph 21.9 mph N/A   Clear
4:53 PM 66.9 °F - 30.9 °F 26% 29.99 in 10.0 mi SW 11.5 mph - N/A   Clear
5:53 PM 57.0 °F - 36.0 °F 45% 30.00 in 10.0 mi SSW 6.9 mph - N/A   Clear
6:53 PM 52.0 °F - 35.1 °F 53% 30.03 in 9.0 mi West 6.9 mph - N/A   Partly Cloudy
7:53 PM 48.0 °F - 35.1 °F 61% 30.06 in 3.0 mi West 9.2 mph - N/A   Haze
8:20 PM 48.2 °F - 35.6 °F 62% 30.05 in 2.5 mi WNW 8.1 mph - N/A   Haze
8:27 PM 48.2 °F - 35.6 °F 62% 30.05 in 3.0 mi WNW 9.2 mph - N/A   Haze
8:53 PM 46.9 °F - 37.0 °F 68% 30.06 in 3.0 mi West 8.1 mph - N/A   Haze
9:53 PM 46.0 °F 41.4 °F 36.0 °F 68% 30.06 in 4.0 mi West 9.2 mph - N/A   Haze
10:53 PM 46.0 °F 41.4 °F 35.1 °F 66% 30.06 in 6.0 mi WSW 9.2 mph - N/A   Haze
11:53 PM 43.0 °F - 35.1 °F 74% 30.07 in 10.0 mi Calm Calm - N/A   Clear